Weather in Holubivka

Ukraine / Dnipropetrovsk Region     48°53′09″N   35°19′41″E
temp.,
°C
wind,
m/s
gust,
m/s
humid.,
%
clouds,
%
prec.,
mm/h
press.,
hPa
HPBL,
m
10 april, sat
sat1000:00+5n335595 0.0 102654
03:00+3nne35675 0.0 102688
06:00+3nne33682 0.0 102644
09:00+8nne35500 0.0 1027416
12:00+11nne333466 0.0 10262115
15:00+12n333198 0.0 10252198
18:00+12n443486 0.0 10252054
21:00+8nne36505 0.0 102695
11 april, sun
sun1100:00+6nne36581 0.0 1026108
03:00+5nne35640 0.0 102772
06:00+4nne37680 0.0 1027131
09:00+9ne594840 0.0 1028633
12:00+12ne7836100 0.0 10271268
15:00+14nne793094 0.0 10251445
18:00+13ne6937100 0.0 10251052
21:00+11ne5114699 0.0 1025671
12 april, mon
mon1200:00+9nne51153100 0.0 1024433
03:00+9nne51057100 0.0 1023486
06:00+8nne4972100 0.0 1022295
09:00+10ne5978100 0.6 1021420
12:00+16e6860100 0.0 1019988
15:00+16se466099 0.0 10191261
18:00+14ssw247398 0.0 1019160
21:00+12sw358197 0.0 1020133
13 april, tue
tue1300:00+11sw238889 0.0 1020103
03:00+10sw2385100 0.0 1021104
06:00+10wsw2286100 0.0 102162
09:00+11sw117998 0.0 1021211
12:00+15se226394 0.0 1021982
15:00+16sse225791 0.1 10201339
18:00+16sse236196 0.1 1019403
21:00+13wnw227397 0.3 102059
14 april, wed
wed1400:00+13ssw2272100 0.0 101951
03:00+12sse2270100 0.0 101929
06:00+11s227295 0.0 101923
09:00+13sse236632 0.0 1018419
12:00+16se465480 0.0 10171581
15:00+17s5747100 0.3 10161905
18:00+15s5758100 0.0 1016723
21:00+13sse485991 0.0 1016230